Springfield, OH

3:25 AM EDT on April 28, 2017 (GMT -0400)
Springfield-Beckley Municipal

Weather History for KSGH - March, 2013

Change the Weather History Date:

Sunday, March 17, 2013

  Actual Average (KFFO) Record (KFFO)
Temperature  
Mean Temperature 32 °F -  
Max Temperature 35 °F 47 °F 73 °F (2012)
Min Temperature 29 °F 27 °F 19 °F (2014)
Degree Days  
Heating Degree Days 33    
Moisture  
Dew Point 25 °F    
Average Humidity 78    
Maximum Humidity 89    
Minimum Humidity 65    
Precipitation  
Precipitation 0.00 in - - ()
Sea Level Pressure  
Sea Level Pressure 30.12 in    
Wind  
Wind Speed 10 mph (NE)    
Max Wind Speed 16 mph    
Max Gust Speed -    
Visibility 7 miles    
Events      
Averages and records for this station are not official NWS values.
T = Trace of Precipitation, MM = Missing Value Source: NWS Daily Summary

Daily Weather History Graph

Daily Weather History Graph

Search for Another Location

Airport or City:

Trip Planner

Search our weather history database for the weather conditions in past years. The results will help you decide how hot, cold, wet, or windy it might be!

Date:

Astronomy

Mar. 17, 2013 Rise Set
Actual Time 7:43 AM EDT 7:44 PM EDT
Civil Twilight 7:16 AM EDT 8:11 PM EDT
Nautical Twilight 6:44 AM EDT 8:43 PM EDT
Astronomical Twilight 6:13 AM EDT 9:14 PM EDT
Moon 10:55 AM EDT (3/17) 12:51 AM EDT (3/17)
Length of Visible Light 12h 55m
Length of Day
12h 01m
Waxing Crescent, 31% of the Moon is Illuminated
Mar 17
Waxing Crescent
Mar 19
First Quarter
Mar 27
Full
Apr 3
Last Quarter
Apr 10
New

Hourly Weather History & Observations

Time (EDT) Temp. Windchill Dew Point Humidity Pressure Visibility Wind Dir Wind Speed Gust Speed Precip Events Conditions
12:56 AM 30.0 °F 23.2 °F 27.1 °F 89% 30.06 in 7.0 mi North 6.9 mph - N/A   Overcast
1:56 AM 30.0 °F 23.2 °F 27.1 °F 89% 30.07 in 7.0 mi NNE 6.9 mph - N/A   Overcast
2:56 AM 30.0 °F 23.2 °F 27.1 °F 89% 30.07 in 7.0 mi NNE 6.9 mph - N/A   Overcast
3:56 AM 30.0 °F 22.4 °F 26.1 °F 85% 30.07 in 7.0 mi NNE 8.1 mph - N/A   Overcast
4:56 AM 30.0 °F 22.4 °F 25.2 °F 82% 30.08 in 8.0 mi NNE 8.1 mph - N/A   Overcast
5:56 AM 30.0 °F 21.7 °F 25.2 °F 82% 30.08 in 8.0 mi NNE 9.2 mph - N/A   Overcast
6:56 AM 30.0 °F 22.4 °F 26.1 °F 85% 30.14 in 7.0 mi NNE 8.1 mph - N/A   Overcast
7:04 AM 30.2 °F 20.8 °F 26.6 °F 86% 30.11 in 7.0 mi NNE 11.5 mph - N/A   Overcast
7:56 AM 29.1 °F 18.4 °F 25.2 °F 85% 30.17 in 8.0 mi NE 13.8 mph - N/A   Overcast
8:56 AM 30.0 °F 21.1 °F 23.0 °F 75% 30.19 in 8.0 mi NNE 10.4 mph - N/A   Overcast
9:56 AM 30.0 °F 20.5 °F 22.1 °F 72% 30.19 in 7.0 mi NE 11.5 mph - N/A   Overcast
10:56 AM 31.1 °F 20.5 °F 23.0 °F 72% 30.18 in 7.0 mi NE 15.0 mph - N/A   Overcast
11:56 AM 30.0 °F 20.0 °F 24.1 °F 79% 30.19 in 7.0 mi NE 12.7 mph - N/A   Overcast
12:56 PM 31.1 °F 21.4 °F 24.1 °F 75% 30.19 in 8.0 mi NE 12.7 mph - N/A   Overcast
1:56 PM 32.9 °F 24.7 °F 25.2 °F 73% 30.17 in 7.0 mi ENE 10.4 mph - N/A   Overcast
2:56 PM 34.0 °F 25.0 °F 25.2 °F 70% 30.16 in 7.0 mi East 12.7 mph - N/A   Overcast
3:56 PM 34.9 °F 26.2 °F 26.1 °F 70% 30.15 in 7.0 mi ENE 12.7 mph - N/A   Overcast
4:56 PM 34.9 °F 26.6 °F 26.1 °F 70% 30.14 in 7.0 mi ENE 11.5 mph - N/A   Mostly Cloudy
5:56 PM 34.9 °F 26.2 °F 26.1 °F 70% 30.13 in 7.0 mi ENE 12.7 mph - N/A   Mostly Cloudy
6:23 PM 35.6 °F 25.9 °F 24.8 °F 65% 30.09 in 7.0 mi ENE 16.1 mph - N/A   Scattered Clouds
6:56 PM 34.0 °F 25.0 °F 26.1 °F 73% 30.11 in 7.0 mi ENE 12.7 mph - N/A   Clear
7:56 PM 32.0 °F 23.6 °F 25.2 °F 76% 30.13 in 8.0 mi ENE 10.4 mph - N/A   Mostly Cloudy
8:56 PM 32.0 °F 23.6 °F 26.1 °F 79% 30.12 in 8.0 mi ENE 10.4 mph - N/A   Overcast
9:16 PM 32.0 °F 23.0 °F 26.6 °F 80% 30.08 in 8.0 mi ENE 11.5 mph - N/A   Overcast
9:56 PM 32.0 °F 23.6 °F 26.1 °F 79% 30.11 in 8.0 mi ENE 10.4 mph - N/A   Overcast
10:56 PM 32.0 °F 22.5 °F 26.1 °F 79% 30.08 in 8.0 mi ENE 12.7 mph - N/A   Overcast
11:56 PM 32.0 °F 22.1 °F 26.1 °F 79% 30.07 in 7.0 mi East 13.8 mph - N/A   Overcast